Year,Month,Day,Hour,Minute,Value (Times are PST for temperature in C)
2018,04,14,00,00,5.60
2018,04,14,00,01,5.60
2018,04,14,00,02,5.60
2018,04,14,00,03,5.60
2018,04,14,00,04,5.50
2018,04,14,00,05,5.50
2018,04,14,00,06,5.50
2018,04,14,00,07,5.50
2018,04,14,00,08,5.50
2018,04,14,00,09,5.40
2018,04,14,00,10,5.40
2018,04,14,00,11,5.40
2018,04,14,00,12,5.30
2018,04,14,00,13,5.30
2018,04,14,00,14,5.30
2018,04,14,00,15,5.30
2018,04,14,00,16,5.30
2018,04,14,00,17,5.20
2018,04,14,00,18,5.20
2018,04,14,00,19,5.20
2018,04,14,00,20,5.20
2018,04,14,00,21,5.10
2018,04,14,00,22,5.10
2018,04,14,00,23,5.10
2018,04,14,00,24,5.10
2018,04,14,00,25,5.10
2018,04,14,00,26,5.10
2018,04,14,00,27,5.10
2018,04,14,00,28,5.10
2018,04,14,00,29,5.10
2018,04,14,00,30,5.10
2018,04,14,00,31,5.10
2018,04,14,00,32,5.00
2018,04,14,00,33,5.00
2018,04,14,00,34,4.90
2018,04,14,00,35,4.90
2018,04,14,00,36,4.90
2018,04,14,00,37,4.90
2018,04,14,00,38,4.90
2018,04,14,00,39,4.90
2018,04,14,00,40,4.90
2018,04,14,00,41,4.90
2018,04,14,00,42,4.90
2018,04,14,00,43,5.00
2018,04,14,00,44,5.00
2018,04,14,00,45,5.10
2018,04,14,00,46,5.10
2018,04,14,00,47,5.10
2018,04,14,00,48,5.10
2018,04,14,00,49,5.10
2018,04,14,00,50,5.10
2018,04,14,00,51,5.00
2018,04,14,00,52,5.00
2018,04,14,00,53,5.00
2018,04,14,00,54,4.90
2018,04,14,00,55,4.90
2018,04,14,00,56,4.90
2018,04,14,00,57,4.90
2018,04,14,00,58,4.90
2018,04,14,00,59,4.80
2018,04,14,01,00,4.80
2018,04,14,01,01,4.80
2018,04,14,01,02,4.90
2018,04,14,01,03,4.90
2018,04,14,01,04,4.90
2018,04,14,01,05,4.90
2018,04,14,01,06,4.90
2018,04,14,01,07,4.90
2018,04,14,01,08,4.90
2018,04,14,01,09,4.90
2018,04,14,01,10,4.90
2018,04,14,01,11,4.90
2018,04,14,01,12,4.90
2018,04,14,01,13,4.90
2018,04,14,01,14,4.90
2018,04,14,01,15,4.90
2018,04,14,01,16,4.90
2018,04,14,01,17,4.80
2018,04,14,01,18,4.80
2018,04,14,01,19,4.80
2018,04,14,01,20,4.80
2018,04,14,01,21,4.80
2018,04,14,01,22,4.80
2018,04,14,01,23,4.80
2018,04,14,01,24,4.80
2018,04,14,01,25,4.80
2018,04,14,01,26,4.80
2018,04,14,01,27,4.70
2018,04,14,01,28,4.70
2018,04,14,01,29,4.70
2018,04,14,01,30,4.70
2018,04,14,01,31,4.60
2018,04,14,01,32,4.60
2018,04,14,01,33,4.50
2018,04,14,01,34,4.50
2018,04,14,01,35,4.50
2018,04,14,01,36,4.50
2018,04,14,01,37,4.50
2018,04,14,01,38,4.50
2018,04,14,01,39,4.40
2018,04,14,01,40,4.40
2018,04,14,01,41,4.40
2018,04,14,01,42,4.40
2018,04,14,01,43,4.40
2018,04,14,01,44,4.40
2018,04,14,01,45,4.40
2018,04,14,01,46,4.40
2018,04,14,01,47,4.40
2018,04,14,01,48,4.40
2018,04,14,01,49,4.40
2018,04,14,01,50,4.40
2018,04,14,01,51,4.40
2018,04,14,01,52,4.30
2018,04,14,01,53,4.30
2018,04,14,01,54,4.30
2018,04,14,01,55,4.30
2018,04,14,01,56,4.30
2018,04,14,01,57,4.30
2018,04,14,01,58,4.30
2018,04,14,01,59,4.30
2018,04,14,02,00,4.30
2018,04,14,02,01,4.30
2018,04,14,02,02,4.30
2018,04,14,02,03,4.30
2018,04,14,02,04,4.30
2018,04,14,02,05,4.30
2018,04,14,02,06,4.30
2018,04,14,02,07,4.30
2018,04,14,02,08,4.30
2018,04,14,02,09,4.20
2018,04,14,02,10,4.20
2018,04,14,02,11,4.20
2018,04,14,02,12,4.20
2018,04,14,02,13,4.20
2018,04,14,02,14,4.20
2018,04,14,02,15,4.20
2018,04,14,02,16,4.20
2018,04,14,02,17,4.20
2018,04,14,02,18,4.20
2018,04,14,02,19,4.10
2018,04,14,02,20,4.10
2018,04,14,02,21,4.10
2018,04,14,02,22,4.10
2018,04,14,02,23,4.00
2018,04,14,02,24,4.00
2018,04,14,02,25,4.00
2018,04,14,02,26,4.00
2018,04,14,02,27,4.00
2018,04,14,02,28,4.00
2018,04,14,02,29,4.00
2018,04,14,02,30,4.00
2018,04,14,02,31,3.90
2018,04,14,02,32,3.90
2018,04,14,02,33,3.90
2018,04,14,02,34,3.90
2018,04,14,02,35,3.90
2018,04,14,02,36,3.90
2018,04,14,02,37,3.90
2018,04,14,02,38,3.90
2018,04,14,02,39,3.90
2018,04,14,02,40,3.90
2018,04,14,02,41,3.80
2018,04,14,02,42,3.80
2018,04,14,02,43,3.80
2018,04,14,02,44,3.80
2018,04,14,02,45,3.80
2018,04,14,02,46,3.80
2018,04,14,02,47,3.80
2018,04,14,02,48,3.80
2018,04,14,02,49,3.80
2018,04,14,02,50,3.80
2018,04,14,02,51,3.80
2018,04,14,02,52,3.80
2018,04,14,02,53,3.80
2018,04,14,02,54,3.80
2018,04,14,02,55,3.70
2018,04,14,02,56,3.70
2018,04,14,02,57,3.70
2018,04,14,02,58,3.70
2018,04,14,02,59,3.70
2018,04,14,03,00,3.70
2018,04,14,03,01,3.70
2018,04,14,03,02,3.70
2018,04,14,03,03,3.70
2018,04,14,03,04,3.70
2018,04,14,03,05,3.70
2018,04,14,03,06,3.70
2018,04,14,03,07,3.60
2018,04,14,03,08,3.60
2018,04,14,03,09,3.60
2018,04,14,03,10,3.60
2018,04,14,03,11,3.60
2018,04,14,03,12,3.60
2018,04,14,03,13,3.60
2018,04,14,03,14,3.60
2018,04,14,03,15,3.60
2018,04,14,03,16,3.60
2018,04,14,03,17,3.70
2018,04,14,03,18,3.70
2018,04,14,03,19,3.70
2018,04,14,03,20,3.70
2018,04,14,03,21,3.70
2018,04,14,03,22,3.70
2018,04,14,03,23,3.70
2018,04,14,03,24,3.70
2018,04,14,03,25,3.70
2018,04,14,03,26,3.80
2018,04,14,03,27,3.80
2018,04,14,03,28,3.80
2018,04,14,03,29,3.80
2018,04,14,03,30,3.80
2018,04,14,03,31,3.80
2018,04,14,03,32,3.80
2018,04,14,03,33,3.80
2018,04,14,03,34,3.80
2018,04,14,03,35,3.80
2018,04,14,03,36,3.80
2018,04,14,03,37,3.80
2018,04,14,03,38,3.80
2018,04,14,03,39,3.90
2018,04,14,03,40,3.90
2018,04,14,03,41,3.90
2018,04,14,03,42,3.90
2018,04,14,03,43,3.90
2018,04,14,03,44,3.90
2018,04,14,03,45,3.90
2018,04,14,03,46,3.90
2018,04,14,03,47,3.90
2018,04,14,03,48,3.90
2018,04,14,03,49,3.90
2018,04,14,03,50,3.90
2018,04,14,03,51,3.90
2018,04,14,03,52,3.90
2018,04,14,03,53,3.90
2018,04,14,03,54,3.90
2018,04,14,03,55,3.90
2018,04,14,03,56,3.90
2018,04,14,03,57,3.90
2018,04,14,03,58,3.90
2018,04,14,03,59,3.90
2018,04,14,04,00,3.90
2018,04,14,04,01,3.90
2018,04,14,04,02,3.90
2018,04,14,04,03,3.90
2018,04,14,04,04,4.00
2018,04,14,04,05,4.00
2018,04,14,04,06,4.00
2018,04,14,04,07,4.00
2018,04,14,04,08,4.00
2018,04,14,04,09,4.00
2018,04,14,04,10,4.00
2018,04,14,04,11,4.00
2018,04,14,04,12,4.00
2018,04,14,04,13,3.90
2018,04,14,04,14,3.90
2018,04,14,04,15,3.90
2018,04,14,04,16,3.90
2018,04,14,04,17,3.90
2018,04,14,04,18,3.90
2018,04,14,04,19,3.90
2018,04,14,04,20,3.80
2018,04,14,04,21,3.80
2018,04,14,04,22,3.80
2018,04,14,04,23,3.80
2018,04,14,04,24,3.80
2018,04,14,04,25,3.80
2018,04,14,04,26,3.80
2018,04,14,04,27,3.80
2018,04,14,04,28,3.70
2018,04,14,04,29,3.70
2018,04,14,04,30,3.70
2018,04,14,04,31,3.70
2018,04,14,04,32,3.70
2018,04,14,04,33,3.70
2018,04,14,04,34,3.70
2018,04,14,04,35,3.70
2018,04,14,04,36,3.70
2018,04,14,04,37,3.70
2018,04,14,04,38,3.70
2018,04,14,04,39,3.70
2018,04,14,04,40,3.70
2018,04,14,04,41,3.70
2018,04,14,04,42,3.70
2018,04,14,04,43,3.70
2018,04,14,04,44,3.70
2018,04,14,04,45,3.70
2018,04,14,04,46,3.70
2018,04,14,04,47,3.70
2018,04,14,04,48,3.70
2018,04,14,04,49,3.80
2018,04,14,04,50,3.80
2018,04,14,04,51,3.80
2018,04,14,04,52,3.80
2018,04,14,04,53,3.80
2018,04,14,04,54,3.80
2018,04,14,04,55,3.80
2018,04,14,04,56,3.80
2018,04,14,04,57,3.80
2018,04,14,04,58,3.80
2018,04,14,04,59,3.80
2018,04,14,05,00,3.80
2018,04,14,05,01,3.80
2018,04,14,05,02,3.80
2018,04,14,05,03,3.80
2018,04,14,05,04,3.90
2018,04,14,05,05,3.80
2018,04,14,05,06,3.80
2018,04,14,05,07,3.80
2018,04,14,05,08,3.80
2018,04,14,05,09,3.80
2018,04,14,05,10,3.80
2018,04,14,05,11,3.90
2018,04,14,05,12,3.90
2018,04,14,05,13,3.90
2018,04,14,05,14,3.90
2018,04,14,05,15,3.90
2018,04,14,05,16,4.00
2018,04,14,05,17,4.00
2018,04,14,05,18,4.10
2018,04,14,05,19,4.20
2018,04,14,05,20,4.30
2018,04,14,05,21,4.40
2018,04,14,05,22,4.40
2018,04,14,05,23,4.50
2018,04,14,05,24,4.60
2018,04,14,05,25,4.70
2018,04,14,05,26,4.80
2018,04,14,05,27,4.80
2018,04,14,05,28,4.80
2018,04,14,05,29,4.70
2018,04,14,05,30,4.70
2018,04,14,05,31,4.60
2018,04,14,05,32,4.60
2018,04,14,05,33,4.60
2018,04,14,05,34,4.60
2018,04,14,05,35,4.60
2018,04,14,05,36,4.70
2018,04,14,05,37,4.70
2018,04,14,05,38,4.70
2018,04,14,05,39,4.70
2018,04,14,05,40,4.70
2018,04,14,05,41,4.70
2018,04,14,05,42,4.70
2018,04,14,05,43,4.70
2018,04,14,05,44,4.70
2018,04,14,05,45,4.70
2018,04,14,05,46,4.70
2018,04,14,05,47,4.70
2018,04,14,05,48,4.70
2018,04,14,05,49,4.70
2018,04,14,05,50,4.80
2018,04,14,05,51,4.70
2018,04,14,05,52,4.70
2018,04,14,05,53,4.70
2018,04,14,05,54,4.70
2018,04,14,05,55,4.70
2018,04,14,05,56,4.70
2018,04,14,05,57,4.70
2018,04,14,05,58,4.70
2018,04,14,05,59,4.70
2018,04,14,06,00,4.70
2018,04,14,06,01,4.70
2018,04,14,06,02,4.70
2018,04,14,06,03,4.70
2018,04,14,06,04,4.70
2018,04,14,06,05,4.70
2018,04,14,06,06,4.60
2018,04,14,06,07,4.60
2018,04,14,06,08,4.60
2018,04,14,06,09,4.60
2018,04,14,06,10,4.60
2018,04,14,06,11,4.60
2018,04,14,06,12,4.60
2018,04,14,06,13,4.50
2018,04,14,06,14,4.50
2018,04,14,06,15,4.50
2018,04,14,06,16,4.40
2018,04,14,06,17,4.40
2018,04,14,06,18,4.40
2018,04,14,06,19,4.40
2018,04,14,06,20,4.40
2018,04,14,06,21,4.30
2018,04,14,06,22,4.30
2018,04,14,06,23,4.30
2018,04,14,06,24,4.30
2018,04,14,06,25,4.30
2018,04,14,06,26,4.30
2018,04,14,06,27,4.30
2018,04,14,06,28,4.40
2018,04,14,06,29,4.40
2018,04,14,06,30,4.40
2018,04,14,06,31,4.40
2018,04,14,06,32,4.40
2018,04,14,06,33,4.40
2018,04,14,06,34,4.40
2018,04,14,06,35,4.40
2018,04,14,06,36,4.40
2018,04,14,06,37,4.40
2018,04,14,06,38,4.30
2018,04,14,06,39,4.30
2018,04,14,06,40,4.30
2018,04,14,06,41,4.30
2018,04,14,06,42,4.30
2018,04,14,06,43,4.30
2018,04,14,06,44,4.30
2018,04,14,06,45,4.30
2018,04,14,06,46,4.30
2018,04,14,06,47,4.30
2018,04,14,06,48,4.30
2018,04,14,06,49,4.30
2018,04,14,06,50,4.20
2018,04,14,06,51,4.20
2018,04,14,06,52,4.20
2018,04,14,06,53,4.20
2018,04,14,06,54,4.20
2018,04,14,06,55,4.20
2018,04,14,06,56,4.20
2018,04,14,06,57,4.10
2018,04,14,06,58,4.20
2018,04,14,06,59,4.20
2018,04,14,07,00,4.20
2018,04,14,07,01,4.20
2018,04,14,07,02,4.20
2018,04,14,07,03,4.20
2018,04,14,07,04,4.20
2018,04,14,07,05,4.20
2018,04,14,07,06,4.20
2018,04,14,07,07,4.20
2018,04,14,07,08,4.20
2018,04,14,07,09,4.20
2018,04,14,07,10,4.20
2018,04,14,07,11,4.20
2018,04,14,07,12,4.20
2018,04,14,07,13,4.20
2018,04,14,07,14,4.20
2018,04,14,07,15,4.20
2018,04,14,07,16,4.30
2018,04,14,07,17,4.30
2018,04,14,07,18,4.30
2018,04,14,07,19,4.30
2018,04,14,07,20,4.30
2018,04,14,07,21,4.30
2018,04,14,07,22,4.30
2018,04,14,07,23,4.30
2018,04,14,07,24,4.20
2018,04,14,07,25,4.20
2018,04,14,07,26,4.20
2018,04,14,07,27,4.20
2018,04,14,07,28,4.20
2018,04,14,07,29,4.30
2018,04,14,07,30,4.30
2018,04,14,07,31,4.30
2018,04,14,07,32,4.30
2018,04,14,07,33,4.30
2018,04,14,07,34,4.30
2018,04,14,07,35,4.30
2018,04,14,07,36,4.30
2018,04,14,07,37,4.30
2018,04,14,07,38,4.30
2018,04,14,07,39,4.30
2018,04,14,07,40,4.30
2018,04,14,07,41,4.40
2018,04,14,07,42,4.40
2018,04,14,07,43,4.40
2018,04,14,07,44,4.50
2018,04,14,07,45,4.50
2018,04,14,07,46,4.60
2018,04,14,07,47,4.70
2018,04,14,07,48,4.70
2018,04,14,07,49,4.80
2018,04,14,07,50,4.90
2018,04,14,07,51,5.00
2018,04,14,07,52,5.10
2018,04,14,07,53,5.10
2018,04,14,07,54,5.10
2018,04,14,07,55,5.20
2018,04,14,07,56,5.20
2018,04,14,07,57,5.20
2018,04,14,07,58,5.30
2018,04,14,07,59,5.40
2018,04,14,08,00,5.50
2018,04,14,08,01,5.50
2018,04,14,08,02,5.60
2018,04,14,08,03,5.70
2018,04,14,08,04,5.80
2018,04,14,08,05,5.80
2018,04,14,08,06,5.80
2018,04,14,08,07,5.80
2018,04,14,08,08,5.90
2018,04,14,08,09,6.00
2018,04,14,08,10,6.00
2018,04,14,08,11,6.10
2018,04,14,08,12,6.10
2018,04,14,08,13,6.10
2018,04,14,08,14,6.10
2018,04,14,08,15,6.10
2018,04,14,08,16,6.10
2018,04,14,08,17,6.10
2018,04,14,08,18,6.10
2018,04,14,08,19,6.10
2018,04,14,08,20,6.10
2018,04,14,08,21,6.20
2018,04,14,08,22,6.20
2018,04,14,08,23,6.20
2018,04,14,08,24,6.20
2018,04,14,08,25,6.30
2018,04,14,08,26,6.30
2018,04,14,08,27,6.40
2018,04,14,08,28,6.50
2018,04,14,08,29,6.60
2018,04,14,08,30,6.70
2018,04,14,08,31,6.70
2018,04,14,08,32,6.70
2018,04,14,08,33,6.70
2018,04,14,08,34,6.80
2018,04,14,08,35,6.90
2018,04,14,08,36,6.90
2018,04,14,08,37,7.00
2018,04,14,08,38,7.10
2018,04,14,08,39,7.20
2018,04,14,08,40,7.20
2018,04,14,08,41,7.20
2018,04,14,08,42,7.20
2018,04,14,08,43,7.30
2018,04,14,08,44,7.30
2018,04,14,08,45,7.30
2018,04,14,08,46,7.30
2018,04,14,08,47,7.30
2018,04,14,08,48,7.30
2018,04,14,08,49,7.20
2018,04,14,08,50,7.20
2018,04,14,08,51,7.20
2018,04,14,08,52,7.30
2018,04,14,08,53,7.30
2018,04,14,08,54,7.30
2018,04,14,08,55,7.40
2018,04,14,08,56,7.50
2018,04,14,08,57,7.50
2018,04,14,08,58,7.60
2018,04,14,08,59,7.70
2018,04,14,09,00,7.80
2018,04,14,09,01,7.80
2018,04,14,09,02,7.80
2018,04,14,09,03,7.90
2018,04,14,09,04,8.00
2018,04,14,09,05,8.00
2018,04,14,09,06,8.10
2018,04,14,09,07,8.10
2018,04,14,09,08,8.20
2018,04,14,09,09,8.20
2018,04,14,09,10,8.30
2018,04,14,09,11,8.30
2018,04,14,09,12,8.40
2018,04,14,09,13,8.50
2018,04,14,09,14,8.60
2018,04,14,09,15,8.70
2018,04,14,09,16,8.90
2018,04,14,09,17,9.00
2018,04,14,09,18,9.10
2018,04,14,09,19,9.30
2018,04,14,09,20,9.40
2018,04,14,09,21,9.50
2018,04,14,09,22,9.60
2018,04,14,09,23,9.60
2018,04,14,09,24,9.60
2018,04,14,09,25,9.50
2018,04,14,09,26,9.50
2018,04,14,09,27,9.30
2018,04,14,09,28,9.30
2018,04,14,09,29,9.30
2018,04,14,09,30,9.20
2018,04,14,09,31,9.30
2018,04,14,09,32,9.40
2018,04,14,09,33,9.40
2018,04,14,09,34,9.40
2018,04,14,09,35,9.40
2018,04,14,09,36,9.50
2018,04,14,09,37,9.60
2018,04,14,09,38,9.60
2018,04,14,09,39,9.70
2018,04,14,09,40,9.70
2018,04,14,09,41,9.70
2018,04,14,09,42,9.70
2018,04,14,09,43,9.70
2018,04,14,09,44,9.70
2018,04,14,09,45,9.60
2018,04,14,09,46,9.60
2018,04,14,09,47,9.70
2018,04,14,09,48,9.70
2018,04,14,09,49,9.70
2018,04,14,09,50,9.70
2018,04,14,09,51,9.70
2018,04,14,09,52,9.60
2018,04,14,09,53,9.60
2018,04,14,09,54,9.60
2018,04,14,09,55,9.70
2018,04,14,09,56,9.70
2018,04,14,09,57,9.80
2018,04,14,09,58,9.80
2018,04,14,09,59,9.80
2018,04,14,10,00,9.80
2018,04,14,10,01,9.80
2018,04,14,10,02,9.80
2018,04,14,10,03,9.80
2018,04,14,10,04,9.80
2018,04,14,10,05,9.80
2018,04,14,10,06,9.80
2018,04,14,10,07,9.80
2018,04,14,10,08,9.80
2018,04,14,10,09,9.80
2018,04,14,10,10,9.80
2018,04,14,10,11,9.70
2018,04,14,10,12,9.70
2018,04,14,10,13,9.70
2018,04,14,10,14,9.70
2018,04,14,10,15,9.80
2018,04,14,10,16,9.70
2018,04,14,10,17,9.80
2018,04,14,10,18,9.80
2018,04,14,10,19,9.80
2018,04,14,10,20,9.80
2018,04,14,10,21,9.80
2018,04,14,10,22,9.80
2018,04,14,10,23,9.80
2018,04,14,10,24,9.80
2018,04,14,10,25,9.70
2018,04,14,10,26,9.70
2018,04,14,10,27,9.70
2018,04,14,10,28,9.70
2018,04,14,10,29,9.70
2018,04,14,10,30,9.70
2018,04,14,10,31,9.80
2018,04,14,10,32,9.80
2018,04,14,10,33,9.80
2018,04,14,10,34,9.90
2018,04,14,10,35,9.90
2018,04,14,10,36,9.90
2018,04,14,10,37,9.90
2018,04,14,10,38,9.90
2018,04,14,10,39,9.90
2018,04,14,10,40,9.90
2018,04,14,10,41,9.90
2018,04,14,10,42,9.90
2018,04,14,10,43,9.90
2018,04,14,10,44,9.90
2018,04,14,10,45,9.90
2018,04,14,10,46,9.90
2018,04,14,10,47,10.00
2018,04,14,10,48,10.10
2018,04,14,10,49,10.20
2018,04,14,10,50,10.20
2018,04,14,10,51,10.30
2018,04,14,10,52,10.40
2018,04,14,10,53,10.50
2018,04,14,10,54,10.60
2018,04,14,10,55,10.60
2018,04,14,10,56,10.50
2018,04,14,10,57,10.60
2018,04,14,10,58,10.60
2018,04,14,10,59,10.50
2018,04,14,11,00,10.50
2018,04,14,11,01,10.50
2018,04,14,11,02,10.50
2018,04,14,11,03,10.50
2018,04,14,11,04,10.60
2018,04,14,11,05,10.50
2018,04,14,11,06,10.50
2018,04,14,11,07,10.50
2018,04,14,11,08,10.40
2018,04,14,11,09,10.30
2018,04,14,11,10,10.30
2018,04,14,11,11,10.30
2018,04,14,11,12,10.20
2018,04,14,11,13,10.30
2018,04,14,11,14,10.30
2018,04,14,11,15,10.40
2018,04,14,11,16,10.50
2018,04,14,11,17,10.50
2018,04,14,11,18,10.50
2018,04,14,11,19,10.50
2018,04,14,11,20,10.50
2018,04,14,11,21,10.50
2018,04,14,11,22,10.50
2018,04,14,11,23,10.50
2018,04,14,11,24,10.60
2018,04,14,11,25,10.60
2018,04,14,11,26,10.60
2018,04,14,11,27,10.70
2018,04,14,11,28,10.70
2018,04,14,11,29,10.70
2018,04,14,11,30,10.80
2018,04,14,11,31,10.80
2018,04,14,11,32,10.90
2018,04,14,11,33,11.00
2018,04,14,11,34,11.10
2018,04,14,11,35,11.10
2018,04,14,11,36,11.20
2018,04,14,11,37,11.20
2018,04,14,11,38,11.10
2018,04,14,11,39,11.10
2018,04,14,11,40,11.10
2018,04,14,11,41,11.10
2018,04,14,11,42,11.10
2018,04,14,11,43,11.10
2018,04,14,11,44,11.10
2018,04,14,11,45,11.10
2018,04,14,11,46,11.10
2018,04,14,11,47,11.10
2018,04,14,11,48,11.10
2018,04,14,11,49,11.20
2018,04,14,11,50,11.20
2018,04,14,11,51,11.30
2018,04,14,11,52,11.30
2018,04,14,11,53,11.30
2018,04,14,11,54,11.30
2018,04,14,11,55,11.30
2018,04,14,11,56,11.40
2018,04,14,11,57,11.40
2018,04,14,11,58,11.40
2018,04,14,11,59,11.50
2018,04,14,12,00,11.50
2018,04,14,12,01,11.50
2018,04,14,12,02,11.60
2018,04,14,12,03,11.60
2018,04,14,12,04,11.60
2018,04,14,12,05,11.60
2018,04,14,12,06,11.60
2018,04,14,12,07,11.60
2018,04,14,12,08,11.60
2018,04,14,12,09,11.60
2018,04,14,12,10,11.60
2018,04,14,12,11,11.60
2018,04,14,12,12,11.60
2018,04,14,12,13,11.60
2018,04,14,12,14,11.60
2018,04,14,12,15,11.60
2018,04,14,12,16,11.60
2018,04,14,12,17,11.70
2018,04,14,12,18,11.70
2018,04,14,12,19,11.70
2018,04,14,12,20,11.70
2018,04,14,12,21,11.70
2018,04,14,12,22,11.70
2018,04,14,12,23,11.70
2018,04,14,12,24,11.80
2018,04,14,12,25,11.80
2018,04,14,12,26,11.80
2018,04,14,12,27,11.70
2018,04,14,12,28,11.70
2018,04,14,12,29,11.70
2018,04,14,12,30,11.70
2018,04,14,12,31,11.60
2018,04,14,12,32,11.60
2018,04,14,12,33,11.60
2018,04,14,12,34,11.60
2018,04,14,12,35,11.70
2018,04,14,12,36,11.70
2018,04,14,12,37,11.70
2018,04,14,12,38,11.80
2018,04,14,12,39,11.80
2018,04,14,12,40,11.90
2018,04,14,12,41,12.00
2018,04,14,12,42,12.00
2018,04,14,12,43,12.00
2018,04,14,12,44,12.10
2018,04,14,12,45,12.10
2018,04,14,12,46,12.10
2018,04,14,12,47,12.20
2018,04,14,12,48,12.20
2018,04,14,12,49,12.20
2018,04,14,12,50,12.20
2018,04,14,12,51,12.20
2018,04,14,12,52,12.20
2018,04,14,12,53,12.10
2018,04,14,12,54,12.00
2018,04,14,12,55,12.00
2018,04,14,12,56,12.00
2018,04,14,12,57,12.10
2018,04,14,12,58,12.10
2018,04,14,12,59,12.10
2018,04,14,13,00,12.10
2018,04,14,13,01,12.10
2018,04,14,13,02,12.20
2018,04,14,13,03,12.20
2018,04,14,13,04,12.20
2018,04,14,13,05,12.20
2018,04,14,13,06,12.30
2018,04,14,13,07,12.30
2018,04,14,13,08,12.30
2018,04,14,13,09,12.30
2018,04,14,13,10,12.40
2018,04,14,13,11,12.40
2018,04,14,13,12,12.50
2018,04,14,13,13,12.40
2018,04,14,13,14,12.40
2018,04,14,13,15,12.30
2018,04,14,13,16,12.30
2018,04,14,13,17,12.30
2018,04,14,13,18,12.30
2018,04,14,13,19,12.30
2018,04,14,13,20,12.40
2018,04,14,13,21,12.40
2018,04,14,13,22,12.40
2018,04,14,13,23,12.40
2018,04,14,13,24,12.30
2018,04,14,13,25,12.30
2018,04,14,13,26,12.30
2018,04,14,13,27,12.30
2018,04,14,13,28,12.30
2018,04,14,13,29,12.20
2018,04,14,13,30,12.20
2018,04,14,13,31,12.20
2018,04,14,13,32,12.20
2018,04,14,13,33,12.20
2018,04,14,13,34,12.20
2018,04,14,13,35,12.20
2018,04,14,13,36,12.20
2018,04,14,13,37,12.20
2018,04,14,13,38,12.10
2018,04,14,13,39,12.10
2018,04,14,13,40,12.10
2018,04,14,13,41,12.00
2018,04,14,13,42,12.00
2018,04,14,13,43,11.90
2018,04,14,13,44,12.00
2018,04,14,13,45,12.00
2018,04,14,13,46,12.10
2018,04,14,13,47,12.00
2018,04,14,13,48,12.00
2018,04,14,13,49,12.00
2018,04,14,13,50,12.00
2018,04,14,13,51,12.00
2018,04,14,13,52,11.90
2018,04,14,13,53,11.90
2018,04,14,13,54,11.90
2018,04,14,13,55,11.90
2018,04,14,13,56,12.00
2018,04,14,13,57,12.00
2018,04,14,13,58,12.00
2018,04,14,13,59,12.00
2018,04,14,14,00,12.00
2018,04,14,14,01,12.00
2018,04,14,14,02,12.00
2018,04,14,14,03,12.00
2018,04,14,14,04,12.00
2018,04,14,14,05,11.90
2018,04,14,14,06,11.90
2018,04,14,14,07,11.80
2018,04,14,14,08,11.80
2018,04,14,14,09,11.70
2018,04,14,14,10,11.70
2018,04,14,14,11,11.70
2018,04,14,14,12,11.70
2018,04,14,14,13,11.60
2018,04,14,14,14,11.70
2018,04,14,14,15,11.70
2018,04,14,14,16,11.70
2018,04,14,14,17,11.70
2018,04,14,14,18,11.70
2018,04,14,14,19,11.80
2018,04,14,14,20,11.80
2018,04,14,14,21,11.90
2018,04,14,14,22,12.00
2018,04,14,14,23,12.00
2018,04,14,14,24,12.00
2018,04,14,14,25,12.00
2018,04,14,14,26,12.00
2018,04,14,14,27,11.90
2018,04,14,14,28,11.80
2018,04,14,14,29,11.80
2018,04,14,14,30,11.80
2018,04,14,14,31,11.80
2018,04,14,14,32,11.80
2018,04,14,14,33,11.80
2018,04,14,14,34,11.80
2018,04,14,14,35,11.80
2018,04,14,14,36,11.80
2018,04,14,14,37,11.80
2018,04,14,14,38,11.70
2018,04,14,14,39,11.70
2018,04,14,14,40,11.60
2018,04,14,14,41,11.60
2018,04,14,14,42,11.70
2018,04,14,14,43,11.70
2018,04,14,14,44,11.70
2018,04,14,14,45,11.80
2018,04,14,14,46,11.80
2018,04,14,14,47,11.80
2018,04,14,14,48,11.80
2018,04,14,14,49,11.80
2018,04,14,14,50,11.80
2018,04,14,14,51,11.70
2018,04,14,14,52,11.70
2018,04,14,14,53,11.70
2018,04,14,14,54,11.70
2018,04,14,14,55,11.70
2018,04,14,14,56,11.70
2018,04,14,14,57,11.60
2018,04,14,14,58,11.60
2018,04,14,14,59,11.60
2018,04,14,15,00,11.60
2018,04,14,15,01,11.60
2018,04,14,15,02,11.60
2018,04,14,15,03,11.60
2018,04,14,15,04,11.60
2018,04,14,15,05,11.60
2018,04,14,15,06,11.60
2018,04,14,15,07,11.60
2018,04,14,15,08,11.70
2018,04,14,15,09,11.70
2018,04,14,15,10,11.70
2018,04,14,15,11,11.70
2018,04,14,15,12,11.60
2018,04,14,15,13,11.60
2018,04,14,15,14,11.70
2018,04,14,15,15,11.70
2018,04,14,15,16,11.70
2018,04,14,15,17,11.60
2018,04,14,15,18,11.60
2018,04,14,15,19,11.60
2018,04,14,15,20,11.60
2018,04,14,15,21,11.50
2018,04,14,15,22,11.50
2018,04,14,15,23,11.50
2018,04,14,15,24,11.50
2018,04,14,15,25,11.40
2018,04,14,15,26,11.40
2018,04,14,15,27,11.40
2018,04,14,15,28,11.40
2018,04,14,15,29,11.30
2018,04,14,15,30,11.30
2018,04,14,15,31,11.20
2018,04,14,15,32,11.30
2018,04,14,15,33,11.30
2018,04,14,15,34,11.30
2018,04,14,15,35,11.30
2018,04,14,15,36,11.20
2018,04,14,15,37,11.20
2018,04,14,15,38,11.20
2018,04,14,15,39,11.20
2018,04,14,15,40,11.20
2018,04,14,15,41,11.10
2018,04,14,15,42,11.10
2018,04,14,15,43,11.10
2018,04,14,15,44,11.00
2018,04,14,15,45,11.00
2018,04,14,15,46,10.90
2018,04,14,15,47,10.90
2018,04,14,15,48,10.80
2018,04,14,15,49,10.80
2018,04,14,15,50,10.80
2018,04,14,15,51,10.80
2018,04,14,15,52,10.80
2018,04,14,15,53,10.80
2018,04,14,15,54,10.80
2018,04,14,15,55,10.80
2018,04,14,15,56,10.80
2018,04,14,15,57,10.90
2018,04,14,15,58,10.90
2018,04,14,15,59,10.90
2018,04,14,16,00,10.90
2018,04,14,16,01,10.90
2018,04,14,16,02,10.90
2018,04,14,16,03,10.90
2018,04,14,16,04,10.90
2018,04,14,16,05,10.90
2018,04,14,16,06,10.90
2018,04,14,16,07,10.90
2018,04,14,16,08,10.90
2018,04,14,16,09,10.90
2018,04,14,16,10,10.90
2018,04,14,16,11,10.90
2018,04,14,16,12,10.90
2018,04,14,16,13,10.90
2018,04,14,16,14,10.90
2018,04,14,16,15,10.90
2018,04,14,16,16,10.90
2018,04,14,16,17,10.90
2018,04,14,16,18,10.80
2018,04,14,16,19,10.80
2018,04,14,16,20,10.80
2018,04,14,16,21,10.80
2018,04,14,16,22,10.80
2018,04,14,16,23,10.80
2018,04,14,16,24,10.80
2018,04,14,16,25,10.80
2018,04,14,16,26,10.80
2018,04,14,16,27,10.80
2018,04,14,16,28,10.80
2018,04,14,16,29,10.80
2018,04,14,16,30,10.80
2018,04,14,16,31,10.80
2018,04,14,16,32,10.80
2018,04,14,16,33,10.80
2018,04,14,16,34,10.80
2018,04,14,16,35,10.80
2018,04,14,16,36,10.80
2018,04,14,16,37,10.80
2018,04,14,16,38,10.80
2018,04,14,16,39,10.80
2018,04,14,16,40,10.80
2018,04,14,16,41,10.80
2018,04,14,16,42,10.80
2018,04,14,16,43,10.80
2018,04,14,16,44,10.80
2018,04,14,16,45,10.80
2018,04,14,16,46,10.80
2018,04,14,16,47,10.80
2018,04,14,16,48,10.70
2018,04,14,16,49,10.70
2018,04,14,16,50,10.70
2018,04,14,16,51,10.70
2018,04,14,16,52,10.70
2018,04,14,16,53,10.70
2018,04,14,16,54,10.60
2018,04,14,16,55,10.60
2018,04,14,16,56,10.60
2018,04,14,16,57,10.60
2018,04,14,16,58,10.60
2018,04,14,16,59,10.60
2018,04,14,17,00,10.60
2018,04,14,17,01,10.60
2018,04,14,17,02,10.60
2018,04,14,17,03,10.60
2018,04,14,17,04,10.60
2018,04,14,17,05,10.60
2018,04,14,17,06,10.60
2018,04,14,17,07,10.60
2018,04,14,17,08,10.60
2018,04,14,17,09,10.60
2018,04,14,17,10,10.60
2018,04,14,17,11,10.60
2018,04,14,17,12,10.60
2018,04,14,17,13,10.50
2018,04,14,17,14,10.50
2018,04,14,17,15,10.50
2018,04,14,17,16,10.50
2018,04,14,17,17,10.40
2018,04,14,17,18,10.40
2018,04,14,17,19,10.40
2018,04,14,17,20,10.40
2018,04,14,17,21,10.40
2018,04,14,17,22,10.40
2018,04,14,17,23,10.40
2018,04,14,17,24,10.30
2018,04,14,17,25,10.30
2018,04,14,17,26,10.30
2018,04,14,17,27,10.30
2018,04,14,17,28,10.30
2018,04,14,17,29,10.30
2018,04,14,17,30,10.30
2018,04,14,17,31,10.30
2018,04,14,17,32,10.30
2018,04,14,17,33,10.30
2018,04,14,17,34,10.30
2018,04,14,17,35,10.30
2018,04,14,17,36,10.30
2018,04,14,17,37,10.30
2018,04,14,17,38,10.20
2018,04,14,17,39,10.20
2018,04,14,17,40,10.20
2018,04,14,17,41,10.20
2018,04,14,17,42,10.20
2018,04,14,17,43,10.20
2018,04,14,17,44,10.10
2018,04,14,17,45,10.10
2018,04,14,17,46,10.10
2018,04,14,17,47,10.10